Weather observations for the past three days for
Dillingham, Dillingham Airport
Imperial (Metric)
Date Time (akdt) Wind (mph) Vis. (mi.) Weather Sky Cond. Temperature (ºF) Relative Humidity Wind Chill (°F) Heat Index (°F) Pressure Precipitation (in)
Air Dwpt 6 hour altimeter (in) sea level (mb) 1 hr 3 hr 6 hr
Max. Min.
17 15:56 S 15 10.00 Fair CLR 61 45 61 51.1 56% 30.01 1016.3
17 14:56 S 8 10.00 Fair CLR 60.1 45 58% 30.02 1016.7
17 13:56 S 10 10.00 Fair CLR 57.9 46 65% 30.03 1017.0
17 12:56 S 8 10.00 Fair CLR 57 45 64% 30.02 1017.0
17 11:56 S 7 10.00 Fair CLR 55 44.1 67% 30.04 1017.3
17 10:56 S 8 10.00 Mostly Cloudy BKN070 54 45 72% 30.04 1017.4
17 09:56 S 7 10.00 A Few Clouds FEW110 52 45 52 46.9 77% 30.05 1017.7
17 08:56 S 8 10.00 Mostly Cloudy BKN080 50 45 83% 47 30.04 1017.5
17 07:56 S 10 10.00 Fair CLR 50 45 83% 46 30.03 1017.3
17 06:56 E 3 10.00 Fair CLR 46.9 44.1 90% 30.03 1017.3
17 05:56 SE 3 10.00 Fair CLR 46.9 44.1 90% 30.03 1017.0
17 04:56 S 7 10.00 Fair CLR 48 44.1 86% 45 30.03 1017.0
17 03:56 S 10 10.00 Fair CLR 50 45 62.1 50 83% 46 30.03 1017.2
17 02:56 S 9 10.00 Fair CLR 51.1 48 89% 30.04 1017.5
17 01:56 S 8 10.00 Fair CLR 53.1 48.9 86% 30.04 1017.6
17 00:56 Calm 10.00 Fair CLR 55.9 48 75% 30.03 1017.3
16 23:56 Calm 10.00 Partly Cloudy SCT100 57 50 78% 30.03 1017.0
16 22:56 E 3 10.00 Fair CLR 57.9 52 81% 30.05 1018.0
16 21:56 N 6 10.00 Fair CLR 61 46.9 66 61 60% 30.06 1018.1
16 20:56 SW 8 10.00 Overcast BKN080 OVC100 63 50 63% 30.06 1018.0
16 19:56 Vrbl 3 10.00 Overcast OVC080 64.9 48 54% 30.06 1018.1
16 18:56 S 10 10.00 A Few Clouds FEW060 64 54 70% 30.05 1017.8
16 17:56 S 16 10.00 A Few Clouds FEW060 63 53.1 70% 30.04 1017.6
16 16:56 S 13 10.00 A Few Clouds FEW045 63 53.1 70% 30.05 1017.8
16 15:56 S 13 10.00 A Few Clouds FEW090 64.9 54 68 59 68% 30.05 1018.0
16 14:56 S 12 10.00 A Few Clouds FEW100 64 54 70% 30.07 1018.6
16 13:56 S 10 10.00 Fair CLR 66 50 56% 30.08 1019.0
16 12:56 S 10 10.00 Fair CLR 64.9 50 59% 30.09 1019.2
16 11:56 S 5 10.00 Fair CLR 68 48 49% 30.1 1019.4
16 10:56 S 5 10.00 Fair CLR 66 45 47% 30.1 1019.6
16 09:56 Calm 10.00 Partly Cloudy SCT100 59 50 66 51.1 72% 30.11 1019.8
16 08:56 N 3 10.00 A Few Clouds FEW110 62.1 48 60% 30.11 1019.8
16 07:56 Calm 9.00 Overcast OVC110 55 48.9 80% 30.11 1020.0
16 06:56 W 3 10.00 Fair CLR 53.1 48 83% 30.11 1019.8
16 05:56 S 5 10.00 Mostly Cloudy BKN110 52 48 86% 30.11 1019.8
16 04:56 S 3 10.00 Fair CLR 53.1 45 74% 30.1 1019.6
16 03:56 NW 5 10.00 A Few Clouds FEW100 55.9 44.1 73 55 65% 30.1 1019.6
16 02:56 Calm 10.00 Mostly Cloudy BKN100 55.9 43 62% 30.1 1019.7
16 01:56 NW 3 10.00 A Few Clouds FEW110 59 44.1 58% 30.11 1019.7
16 00:56 Calm 10.00 Fair CLR 60.1 45 58% 30.1 1019.7
15 23:56 Calm 10.00 Fair CLR 63 45 52% 30.1 1019.5
15 22:56 Calm 10.00 Fair CLR 68 45 44% 30.09 1019.3
15 21:56 Calm 10.00 Fair CLR 73 42.1 77 73 33% 30.09 1019.3
15 20:56 W 12 10.00 Fair CLR 75 41 29% 77 30.1 1019.4
15 19:56 NW 5 10.00 A Few Clouds FEW095 75.9 41 29% 77 30.09 1019.3
15 18:56 N 5 10.00 Fair CLR 75 41 29% 77 30.1 1019.5
15 17:56 N 3 10.00 Mostly Cloudy SCT080 BKN095 73.9 41 31% 30.11 1019.7
15 16:56 Vrbl 5 10.00 Mostly Cloudy BKN090 73.9 43 33% 30.12 1020.1
15 15:56 Vrbl 7 10.00 Mostly Cloudy BKN090 73.9 42.1 75 66 32% 30.12 1020.2
15 14:56 N 6 10.00 Mostly Cloudy BKN080 73.9 43 33% 30.13 1020.5
15 13:56 N 8 10.00 Mostly Cloudy BKN080 73 44.1 35% 30.13 1020.6
15 12:56 Calm 10.00 Partly Cloudy SCT080 70 46 42% 30.14 1021.0
15 11:56 N 6 10.00 Partly Cloudy SCT080 70 44.1 39% 30.15 1021.2
15 10:56 N 8 10.00 Partly Cloudy SCT080 68 43 40% 30.16 1021.5
15 09:56 N 9 10.00 Mostly Cloudy BKN070 66 43 66 46 43% 30.16 1021.6
15 08:56 NW 3 10.00 Mostly Cloudy BKN080 57 45 64% 30.17 1021.7
15 07:56 W 7 10.00 A Few Clouds FEW080 54 44.1 69% 30.17 1021.8
15 06:56 Calm 10.00 Overcast OVC080 50 43 77% 30.17 1021.9
15 05:56 Calm 10.00 Overcast OVC080 48 42.1 80% 30.17 1021.9
15 04:56 Calm 10.00 Mostly Cloudy BKN080 46 42.1 86% 30.17 1021.9
15 03:56 Calm 10.00 Overcast OVC080 48.9 43 59 48.9 80% 30.17 1022.0
15 02:56 Calm 10.00 Partly Cloudy SCT080 48.9 43 80% 30.18 1022.1
15 01:56 W 3 10.00 Fair CLR 48.9 43 80% 30.18 1022.1
15 00:56 Vrbl 3 10.00 Fair CLR 51.1 43 74% 30.18 1022.2
14 23:56 Vrbl 3 10.00 Fair CLR 53.1 44.1 72% 30.18 1022.1
14 22:56 Calm 10.00 Fair CLR 57 43 60% 30.17 1022.0
14 21:56 Calm 10.00 Overcast OVC075 57.9 43 68 57.9 58% 30.18 1022.1
14 20:56 SW 12 10.00 Mostly Cloudy BKN075 61 42.1 50% 30.18 1022.2
14 19:56 SW 10 10.00 Mostly Cloudy BKN070 62.1 44.1 52% 30.19 1022.5
14 18:56 S 9 10.00 Mostly Cloudy BKN070 64 45 50% 30.19 1022.5
14 17:56 SW 9 10.00 Mostly Cloudy BKN070 66.9 46 47% 30.2 1022.7
14 16:56 SW 14 10.00 Partly Cloudy SCT075 68 46 45% 30.2 1022.9
Date Time (akdt) Wind (mph) Vis. (mi.) Weather Sky Cond. Air Dwpt Max. Min. Relative Humidity Wind Chill (°F) Heat Index (°F) altimeter (in) sea level (mb) 1 hr 3 hr 6 hr
6 hour
Temperature (ºF) Pressure Precipitation (in)